Regional Weather Roundup
Issued by NWS Lake Charles, LA

Home | Current Version | Previous Version | Text Only | Print | Product List | Glossary On
Versions: 1 2 3 4 5 6 7 8 9 10 11 12 13 14 15 16 17 18 19 20 21 22 23 24 25 26 27 28 29 30 31 32 33 34 35 36 37 38 39 40 41 42 43 44 45 46 47 48 49
000
ASUS44 KLCH 221410
RWRLCH
RWRLCH
REGIONAL WEATHER ROUNDUP
NATIONAL WEATHER SERVICE LAKE CHARLES LA
900 AM CDT MON SEP 22 2014

Note: "fair" indicates few or no clouds below 12,000 feet with no
significant weather and/or obstructions to visibility.


ACROSS SOUTHEAST TEXAS

CITY           SKY/WX    TMP DP  RH WIND       PRES   REMARKS
BEAUMONT       SUNNY     80  73  79 N10       30.07R
BEAUMONT CITY    N/A     76  73  91 N5        30.08R
ORANGE         MOSUNNY   76  76 100 N5        30.09R
JASPER         SUNNY     75  67  76 NE8       30.12R
$$

ACROSS CENTRAL LOUISIANA

CITY           SKY/WX    TMP DP  RH WIND       PRES   REMARKS
LEESVILLE      SUNNY     75  62  64 NE13G21   30.10R
FULLERTON        N/A     76  64  66 VRB6      30.08R
ALEXANDRIA INT PTSUNNY   74  60  61 VRB6      30.09R
ESLER FIELD    CLOUDY    74  63  68 VRB6      30.10R
DERIDDER         N/A     75  67  74 NE8       30.11R
OAKDALE        SUNNY     76  68  75 N7        30.09R
OPELOUSAS        N/A     74  71  89 N9        30.07R
$$

ACROSS SOUTHWEST AND SOUTH CENTRAL LOUISIANA

CITY           SKY/WX    TMP DP  RH WIND       PRES   REMARKS
SULPHUR        SUNNY     79  73  83 N5        30.08R
LAKE CHARLES   SUNNY     78  71  79 NE10      30.07R
CHENNAULT INT  SUNNY     75  72  88 NE10      30.08R
CAMERON PHI    SUNNY     81  73  78 CALM      30.09R
DEQUINCY         N/A     76  70  82 E5        30.08R
JENNINGS         N/A     75  72  88 N6        30.07S
LAFAYETTE      SUNNY     79  72  79 NE5       30.06R
NEW IBERIA     SUNNY     79  72  79 CALM      30.06S
ABBEVILLE        N/A     77  72  84 NW3       30.05F
PATTERSON      MOSUNNY   79  72  78 N6        30.08R
SALT POINT       N/A     81  73  76 VRB5      30.04R
$$

SELECTED SITES ACROSS THE REGION

CITY           SKY/WX    TMP DP  RH WIND       PRES   REMARKS
HOUSTON BUSH   MOSUNNY   80  70  71 N3        30.08R
HOUSTON HOBBY  MOSUNNY   81  72  74 CALM      30.07R
GALVESTON      SUNNY     82  76  81 N7        30.07R
COLLEGE STAT   MOSUNNY   76  69  79 N10       30.11R
CONROE         SUNNY     72  69  90 N6        30.09R
HUNTSVILLE     MOSUNNY   74  69  85 NE3       30.11R
LUFKIN         SUNNY     78  65  63 NE9       30.12R
SHREVEPORT     SUNNY     73  54  51 NE15      30.16R
MONROE         SUNNY     72  55  55 NE10G17   30.16R
NATCHEZ MS     SUNNY     73  64  73 N8        30.11R
BATON ROUGE    SUNNY     77  69  76 VRB5      30.06R
N.O. INTL ARPT MOSUNNY   82  70  66 N7        30.04R
SLIDELL        SUNNY     78  69  73 NW5       30.04R
$$

MARINE REPORTS

STATION/POSITION TIME  TEMP    WIND        PRES    VSBY  WAVE
                       AIR SEA DIR/SP/G                  HT/PER
                 (UTC) (F)     (DEG/KT/KT) (MB)    (MI)  (FT/S)
BUOY 30 S HIGH I 1400   82 83   20/  6/  6 1017.5R         2/ 5
SEA RIM ST PARK  1400   78     360/  4/  5 1018.5R
PORT ARTHUR      1400      83   CALM  /  2 1018.1S
SABINE PASS N    1400   79 83   10/  1/  2 1018.1S
TEXAS POINT      1400   79 82   10/  5/  6 1018.1S
CALCASIEU PASS   1400   79 83   60/  3/  5 1018.9F
LK CHARLES BEACH 1400   77 84              1018.3R
MARSH ISLAND     NOT AVBL
FRESH WATER LOCK 1400   76 83  340/  6/  8 1017.6S
AMERADA PASS     1400   76 81  320/  3/  5 1017.4R
$$


USA.gov is the U.S. government's official web portal to all federal, state and local government web resources and services.